[[{"header":{"parameterUnit":"m.s-1","parameterCategory":1,"la1":30.2992,"la2":30.254,"lo1":-89.0895,"lo2":-89.0443,"dy":0.0025,"dx":0.0025,"nx":19,"ny":19,"refTime":"2026-03-12T03:00:00:Z","depth":0,"parameterNumber":2,"parameterNumberName":"U-component_of_WINDS"},"data":[0,0,0,3.7642,3.7651,3.8093,3.8094,3.8645,3.865,0,0,0,0,0,0,0,0,0,0,0,3.7491,3.7494,3.7641,3.7651,3.8092,3.8095,3.8644,3.865,0,0,0,0,0,0,0,0,0,0,0,3.749,3.7493,3.7497,3.7653,3.8092,3.8095,3.8643,3.8318,0,0,0,0,0,0,0,0,0,0,3.7892,3.7731,3.7492,3.7497,3.7655,3.8091,3.8095,3.8302,3.8338,3.8435,0,3.8507,0,3.8586,3.8685,3.8686,0,0,0,3.7669,3.7701,3.7837,3.7497,3.7659,3.8091,3.7898,3.8322,3.8363,3.8482,3.8515,3.8536,3.8595,3.8688,3.869,3.9175,3.9177,0,0,3.7644,3.7562,3.7809,3.7862,3.7781,3.7884,3.7912,3.8347,3.8381,3.8517,3.855,3.8604,3.8691,3.8695,3.9174,3.9176,0,0,0,3.7563,3.7544,3.767,3.7838,3.7918,3.7896,3.7928,3.8362,3.841,3.8556,3.8611,3.8694,3.8701,3.9173,3.9175,3.9164,0,0,0,3.7549,3.7497,3.7659,3.7613,3.791,3.8143,3.7933,3.8379,3.8431,3.8608,3.8695,3.8706,3.9171,3.9174,3.9161,3.9175,0,0,0,3.747,3.7488,3.7544,3.7608,3.7793,3.8138,3.8211,3.8392,3.8464,3.8687,3.8707,3.917,3.9173,3.9159,3.917,3.9281,0,0,0,3.7363,3.7529,3.7542,3.7751,3.7789,3.8125,3.8209,3.8466,3.8655,3.8697,3.9171,3.9175,3.9158,3.9168,3.9277,3.9358,3.9383,0,0,3.7528,3.7546,3.7677,3.7701,3.8012,3.8064,3.8381,3.8636,3.8737,3.9027,3.904,3.9162,3.917,3.928,3.9551,3.9569,0,0,0,3.7701,3.7794,3.7895,3.8067,3.8262,3.8435,3.8649,3.8747,3.8995,3.8865,3.9234,3.9241,3.9309,3.9352,3.9369,3.9436,3.919,3.919,3.9189,3.7816,3.7933,3.8158,3.8329,3.8498,3.8719,3.8871,3.9041,3.9111,3.9197,3.9284,3.9433,3.948,3.9493,3.9561,3.9335,3.9335,3.9335,3.9335,3.8071,3.8222,3.8312,3.8562,3.8689,3.8906,3.9132,3.9175,3.9402,3.9375,3.9442,3.9403,3.951,3.9576,3.9336,3.9336,3.9336,3.9336,3.9336,3.816,3.8253,3.8364,3.863,3.8826,3.8999,3.9212,3.9321,3.9427,3.9492,3.96,3.9601,3.9618,3.9535,3.9536,3.9537,3.9537,3.9537,3.9538,3.8208,3.8334,3.8495,3.8719,3.8849,3.9034,3.9265,3.94,3.9578,3.9643,3.9644,3.9711,3.9496,3.944,3.9546,3.9545,3.9544,3.9543,3.9542,3.8424,3.8394,3.8641,3.877,3.905,3.9241,3.9379,3.9645,3.9773,3.9877,3.9933,3.9754,3.9784,3.9772,3.9727,3.9901,3.9901,3.9901,3.9901,3.8501,3.8525,3.8807,3.9008,3.9219,3.937,3.9661,3.9847,4.0036,4.0126,4.0117,4.0068,4.005,4.0091,4.0072,4.0033,4.028,4.0281,4.0281,3.8643,3.8694,3.8912,3.9088,3.9317,3.9515,3.9794,4.0032,4.0241,4.0299,4.02,4.0184,4.0105,4.0072,4.0125,4.0093,4.0022,0,0]},{"header":{"parameterUnit":"m.s-1","parameterCategory":1,"la1":30.2992,"la2":30.254,"lo1":-89.0895,"lo2":-89.0443,"dy":0.0025,"dx":0.0025,"nx":19,"ny":19,"refTime":"2026-03-12T03:00:00:Z","depth":0,"parameterNumber":3,"parameterNumberName":"V-component_of_WINDS"},"data":[0,0,0,-7.2686,-7.269,-7.2868,-7.2869,-7.3086,-7.3088,0,0,0,0,0,0,0,0,0,0,0,-7.2633,-7.2634,-7.2686,-7.269,-7.2868,-7.2869,-7.3085,-7.3088,0,0,0,0,0,0,0,0,0,0,0,-7.2632,-7.2634,-7.2636,-7.2691,-7.2868,-7.2869,-7.3085,-7.2953,0,0,0,0,0,0,0,0,0,0,-7.2781,-7.2733,-7.2633,-7.2636,-7.2692,-7.2868,-7.2869,-7.2947,-7.2961,-7.3002,0,-7.3044,0,-7.307,-7.3102,-7.3103,0,0,0,-7.2689,-7.2721,-7.277,-7.2636,-7.2694,-7.2868,-7.2788,-7.2955,-7.2971,-7.3021,-7.3047,-7.3055,-7.3073,-7.3103,-7.3105,-7.3355,-7.3356,0,0,-7.2679,-7.2663,-7.2759,-7.2781,-7.2759,-7.2782,-7.2793,-7.2965,-7.2989,-7.3048,-7.306,-7.3077,-7.3105,-7.3107,-7.3354,-7.3355,0,0,0,-7.2652,-7.2656,-7.2701,-7.2772,-7.2805,-7.2787,-7.28,-7.2982,-7.2998,-7.3063,-7.3079,-7.3106,-7.3109,-7.3353,-7.3354,-7.3399,0,0,0,-7.2646,-7.264,-7.2697,-7.2689,-7.2802,-7.2897,-7.2813,-7.2986,-7.3006,-7.3078,-7.3106,-7.3111,-7.3351,-7.3354,-7.3395,-7.3422,0,0,0,-7.2621,-7.2637,-7.2664,-7.2687,-7.2764,-7.2895,-7.2921,-7.2991,-7.3017,-7.3103,-7.3111,-7.3351,-7.3353,-7.3392,-7.3416,-7.3482,0,0,0,-7.2588,-7.27,-7.2664,-7.2794,-7.2763,-7.2923,-7.292,-7.3039,-7.3119,-7.3107,-7.3352,-7.3354,-7.3391,-7.3413,-7.3478,-7.3534,-7.3556,0,0,-7.272,-7.2715,-7.2793,-7.2766,-7.2929,-7.2897,-7.3065,-7.3151,-7.3172,-7.3291,-7.3297,-7.3397,-7.3416,-7.3481,-7.369,-7.3707,0,0,0,-7.2829,-7.2884,-7.2931,-7.3008,-7.3079,-7.314,-7.3203,-7.3234,-7.3337,-7.3232,-7.3439,-7.3451,-7.349,-7.3517,-7.3532,-7.3565,-7.3367,-7.3366,-7.3366,-7.2989,-7.3013,-7.3142,-7.3186,-7.326,-7.3323,-7.3383,-7.3435,-7.3435,-7.3484,-7.3519,-7.3643,-7.3674,-7.3686,-7.372,-7.3551,-7.3552,-7.3552,-7.3552,-7.3182,-7.3263,-7.3261,-7.3386,-7.3407,-7.3509,-7.3572,-7.3569,-7.3663,-7.3619,-7.3654,-7.3602,-7.3705,-7.3735,-7.3555,-7.3555,-7.3554,-7.3554,-7.3554,-7.3289,-7.3331,-7.337,-7.3482,-7.3565,-7.3603,-7.3695,-7.371,-7.3725,-7.376,-7.3797,-7.3796,-7.3795,-7.3777,-7.3777,-7.3778,-7.3778,-7.3778,-7.3779,-7.3384,-7.3426,-7.3504,-7.3588,-7.3637,-7.3705,-7.3767,-7.3815,-7.3871,-7.3874,-7.3875,-7.3867,-7.3712,-7.3672,-7.3785,-7.3784,-7.3783,-7.3783,-7.3782,-7.3567,-7.3528,-7.3649,-7.3699,-7.3796,-7.3874,-7.3894,-7.3989,-7.403,-7.4073,-7.4058,-7.3942,-7.3937,-7.3925,-7.3892,-7.4056,-7.4056,-7.4056,-7.4056,-7.3656,-7.3656,-7.3782,-7.386,-7.3939,-7.3968,-7.4096,-7.4144,-7.4186,-7.4211,-7.419,-7.4147,-7.4134,-7.4136,-7.412,-7.4088,-7.4299,-7.4299,-7.4299,-7.3769,-7.3777,-7.3887,-7.3932,-7.4008,-7.4071,-7.4191,-7.4276,-7.4315,-7.431,-7.423,-7.422,-7.4151,-7.4128,-7.412,-7.4094,-7.4037,0,0]}]]